COSMOS 1275 DEB

Satellite information

Favourite Embed

Satellite Type and Status

DEBRISIN ORBIT

Key statistics

Satellite COSMOS 1275 DEB at a glance.

Uptime

16105

Days in orbit

Revolutions

≈ 13.9

Per day

Orbit

LEO

Low Earth Orbit

Inclination

83.3

Latest

Satellite identification and parameters

Extended collection of information and parameters for COSMOS 1275 DEB.

Object identification

Identified? True

Debris? True

Object name: COSMOS 1275 DEB

International designator: 1981-053BU

Object number (NORAD): 12727

Object ID (CCSDS): 12727

Country: COMMONWEALTH OF INDEPENDENT STATES (CIS)

Current information (Y/N): Y

RCS size: MEDIUM

Orbital parameters

Period: 103.37 minutes

Inclination: 83.2867 deg

SMA: 7296.067 km

Apoapsis: 983.373 km

Periapsis: 852.491 km

RAAN: 265.932 deg

Eccentricy: 0.0089694

Argument of periapsis: 26.8551 deg

Mean anomaly: 101.1443 deg

Mean motion: 13.93059098 rev/day

Mean motion (dot): 0.00000741 rev/day2

B* drag term: 0.00053919 1/REarth

Two-line elements (TLE)

Creation date: July 8, 2025, 2:27 a.m.

Reference frame: TEME

Reference center: EARTH

Epoch: July 7, 2025, 5:39 p.m. UTC

TLE line 0: 0 COSMOS 1275 DEB

TLE line 1: 1 12727U 81053BU 25188.73583162 .00000741 00000-0 53919-3 0 9997

TLE line 2: 2 12727 83.2867 265.9320 0089694 26.8551 101.1443 13.93059098210302

Live tracking on map

Real-time ground track for satellite COSMOS 1275 DEB.

In-orbit conjunctions

A list of the most updated potential collisions computed for object COSMOS 1275 DEB.

Target Orbit TCA Probability of collision Miss distance Type
THOR ABLESTAR DEB LEO 2024-10-04 02:30:03 0.0001210489 212.0 (m) DEBRIS
FENGYUN 1C DEB SSO 2024-08-22 22:18:18 0.0001086158 182.0 (m) DEBRIS

Associated space launch

Navigation satellite providing location information for the Tsiklon-B navigation system

COSMOS 1275 DEB was lifted into orbit during the mission ‘Kosmos-3M | Parus 27’, on board a Kosmos-3M space rocket.

The launch took place on June 4, 1981, 3:41 p.m. from 132/2.

For more information about the launch, click the button.

Launch to space Kosmos-3M | Parus 27
Kosmos-3M | Parus 27

Agency: N/A

Status: Launch Successful

Launch date: June 4, 1981, 3:41 p.m. UTC

Rocket: Kosmos-3M

Launch pad: 132/2

Location: Plesetsk Cosmodrome, Russian Federation

...

Latest news about this satellite

There are no fresh news available about this satellite. Check back as we update our databases every day.


Newsletter sign-up

Weekly statistics, charts and insights to help you stay on top of the space industry.